Temp
6 6 6 6 6 6 6 6 6 6 6 6 6 6 6 6 6 6 6 6 6 6 6 6 6 7 7 7 7 7 7 7 7 7 6 6 6 5 5 5 5 5 5 5 5 5 5
6 6 6 6 6 6 6 6 6 6 6 6 6 6 6 6 5 6 6 6 6 6 6 6 6 6 6 6 6 7 7 6 6 6 6 6 6 5 5 5 5 5 5 5 5 5 5
5 6 6 6 6 5 5 6 6 6 5 6 6 6 6 5 5 5 5 5 5 5 6 6 6 6 6 6 6 6 6 6 6 6 6 5 5 5 5 5 5 5 4 4 5 5 5
5 5 6 6 5 5 5 5 6 6 6 5 6 5 5 5 5 5 5 5 5 5 5 6 6 6 6 6 6 6 6 6 6 6 6 5 5 4 4 4 4 4 4 4 4 4 4
5 5 5 5 5 5 5 5 5 5 5 5 5 5 5 5 5 5 5 5 5 5 5 5 5 5 5 5 5 5 5 5 5 5 5 5 5 4 4 3 3 3 2 3 3 3 3
5 5 5 5 5 5 5 5 5 5 5 5 5 5 5 5 5 5 5 5 5 5 5 5 5 5 5 5 5 5 5 5 4 4 4 4 4 4 3 3 4 2 2 3 2 2 3
4 5 5 5 5 5 5 5 5 5 5 5 5 4 4 4 4 4 4 4 4 5 4 4 4 4 4 4 4 4 4 4 4 4 4 4 3 3 3 3 3 2 2 2 2 2 3
4 4 5 5 5 5 5 5 5 5 5 4 4 4 4 4 4 4 4 4 4 4 4 4 3 4 4 4 4 3 3 3 3 3 3 3 3 3 3 3 2 2 2 2 2 2 2
3 4 4 4 4 4 4 4 4 4 4 4 4 4 4 4 4 4 4 4 4 4 3 3 3 3 3 3 3 3 3 3 3 3 3 2 2 2 2 2 2 2 2 1 1 1 2
2 3 3 3 4 4 4 4 4 4 4 4 3 3 3 3 3 3 3 3 3 3 3 2 2 2 2 3 3 3 3 3 3 2 2 2 2 2 1 1 1 1 1 0 -0 -0 -1
1 2 2 2 3 3 4 3 3 3 3 3 3 3 3 3 2 3 3 3 3 3 3 2 2 2 2 2 2 2 2 2 2 2 2 2 2 1 1 1 0 0 -0 -0 -1 -1 -2
1 1 1 0 2 2 3 3 3 3 3 3 2 2 2 2 2 2 2 2 2 3 2 2 2 1 2 2 2 2 2 2 2 1 1 1 1 1 0 0 -0 -0 -1 -1 -2 -2 -3
1 0 0 -0 0 1 2 2 2 2 2 2 2 2 2 2 2 1 1 2 2 2 2 1 1 1 1 1 2 2 1 1 1 0 0 0 0 -0 -0 -1 -1 -1 -1 -0 -0 -1 1
0 -0 0 0 0 1 1 1 1 1 1 2 1 1 1 1 1 1 1 1 0 2 2 1 1 1 1 1 1 1 0 1 1 0 -0 -0 -1 -0 -1 -1 -2 -2 -2 -1 -1 1 1
-0 -0 -0 0 0 1 1 1 1 1 1 1 1 0 0 0 0 -0 0 -0 1 1 1 1 0 0 0 0 0 -0 -0 -0 -0 -0 -0 -1 -1 -1 -1 -2 -2 -3 -3 -3 -3 -5 -6
-0 -0 -0 -0 -0 0 0 0 1 1 1 -0 -0 0 0 0 -0 -1 -1 -0 0 1 1 0 -0 0 -0 -0 -0 -0 -0 -1 -1 -1 -2 -2 -2 -2 -2 -3 -3 -3 -4 -4 -4 -3 -2
-1 -0 -1 -0 -0 -0 -0 0 0 0 -0 -0 0 -0 0 -0 -1 -1 -1 -0 -0 -0 -0 -0 -0 -1 -1 -1 -1 -1 -1 -1 -2 -2 -3 -3 -3 -3 -3 -3 -4 -4 -5 -5 -5 -5 -3
-0 -0 -1 -1 -0 -0 -0 -1 -0 -0 0 -0 -0 -0 -0 -1 -1 -1 -1 -1 -1 -1 -1 -1 -1 -1 -1 -1 -1 -1 -2 -2 -2 -3 -3 -4 -4 -5 -4 -4 -5 -5 -5 -5 -5 -6 -6
-0 -0 -1 -1 -1 -1 -1 -0 -0 -0 -0 -0 -0 -1 -1 -1 -1 -1 -1 -1 -1 -1 -1 -1 -1 -2 -2 -2 -2 -2 -2 -2 -3 -3 -4 -5 -5 -5 -5 -5 -5 -5 -5 -5 -5 -6 -7
-0 -0 -1 -1 -1 -1 -1 -1 -0 -1 -1 -1 -1 -1 -1 -1 -1 -1 -1 -1 -1 -1 -2 -2 -2 -2 -3 -3 -3 -3 -3 -3 -4 -4 -5 -5 -6 -5 -4 -4 -5 -6 -6 -6 -6 -7 -6
0 -1 -1 -1 -1 -1 -1 -1 -1 -1 -1 -1 -2 -1 -1 -1 -1 -1 -2 -2 -2 -2 -2 -2 -2 -3 -3 -4 -4 -5 -4 -4 -5 -5 -5 -6 -7 -6 -6 -6 -7 -7 -7 -7 -7 -6 -8
1 0 -0 0 -1 -1 -1 -1 -1 -1 -1 -1 -2 -2 -2 -1 -1 -2 -2 -2 -3 -2 -2 -2 -2 -3 -4 -4 -4 -4 -5 -5 -5 -5 -6 -7 -7 -7 -7 -6 -6 -7 -6 -6 -6 -7 -8
1 0 -0 -0 -2 -1 -1 -1 -1 -1 -1 -1 -2 -2 -2 -2 -2 -2 -2 -2 -2 -3 -3 -3 -3 -4 -4 -5 -4 -5 -6 -6 -6 -6 -7 -7 -7 -8 -8 -7 -8 -7 -3 -3 -4 -4 -5
0 -0 -0 -1 -1 -2 -2 -2 -2 -1 -2 -2 -2 -2 -3 -3 -2 -2 -3 -3 -3 -3 -4 -4 -4 -4 -5 -5 -6 -6 -6 -6 -6 -6 -7 -8 -9 -9 -9 -9 -7 -4 -5 -5 -6 -6 -7
-1 -1 -1 -1 -2 -2 -2 -3 -2 -2 -2 -2 -3 -3 -3 -3 -3 -2 -3 -4 -4 -4 -4 -4 -5 -5 -6 -6 -6 -6 -6 -6 -5 -5 -6 -8 -10 -10 -10 -12 -6 -5 -5 -6 -7 -7 -8
-2 -1 -1 -2 -3 -3 -3 -4 -3 -3 -4 -3 -3 -3 -3 -3 -3 -4 -3 -4 -5 -4 -5 -5 -6 -6 -6 -6 -6 -7 -6 -5 -6 -6 -5 -6 -10 -11 -11 -12 -7 -5 -6 -7 -8 -9 -8
-2 -2 -2 -2 -3 -3 -4 -3 -3 -3 -3 -3 -3 -3 -4 -3 -4 -4 -4 -5 -5 -5 -5 -6 -6 -6 -6 -5 -6 -7 -7 -7 -7 -7 -7 -7 -9 -11 -12 -12 -9 -7 -7 -8 -11 -9 -9
-2 -2 -1 -1 -2 -3 -3 -3 -3 -2 -2 -2 -4 -4 -4 -5 -5 -4 -5 -5 -5 -5 -5 -6 -6 -6 -6 -6 -7 -7 -7 -7 -8 -8 -7 -7 -8 -9 -12 -14 -12 -7 -8 -10 -10 -10 -11
-3 -2 -2 -2 -1 -1 -2 -2 -2 -2 -2 -2 -4 -4 -5 -5 -5 -5 -5 -5 -5 -6 -6 -6 -5 -5 -6 -6 -7 -7 -8 -8 -8 -9 -8 -10 -8 -8 -9 -8 -8 -9 -10 -10 -11 -12 -13
Height
3150 3151 3152 3154 3155 3156 3156 3157 3158 3158 3159 3159 3159 3158 3158 3158 3157 3156 3156 3155 3154 3153 3151 3151 3149 3149 3148 3148 3148 3147 3146 3145 3145 3145 3146 3147 3147 3148 3149 3149 3151 3151 3152 3152 3153 3154 3155
3148 3149 3150 3152 3153 3154 3155 3156 3157 3157 3157 3158 3158 3158 3158 3158 3157 3157 3156 3155 3154 3153 3151 3150 3149 3148 3148 3147 3146 3145 3144 3144 3143 3143 3143 3144 3145 3146 3147 3148 3149 3149 3150 3150 3151 3151 3151
3146 3147 3148 3149 3150 3152 3153 3154 3155 3156 3156 3157 3157 3157 3157 3157 3156 3156 3155 3154 3153 3152 3151 3149 3148 3147 3146 3146 3144 3143 3143 3142 3142 3142 3142 3142 3143 3145 3145 3146 3146 3147 3148 3148 3148 3148 3148
3142 3143 3145 3146 3148 3149 3151 3152 3153 3154 3154 3156 3156 3155 3156 3156 3155 3155 3154 3152 3151 3150 3149 3148 3146 3145 3144 3143 3142 3142 3142 3142 3141 3141 3141 3141 3141 3142 3143 3144 3144 3145 3145 3145 3145 3144 3145
3138 3140 3141 3143 3144 3146 3148 3149 3150 3151 3152 3154 3154 3154 3154 3154 3154 3153 3152 3151 3150 3148 3147 3145 3145 3143 3143 3142 3141 3140 3140 3140 3140 3140 3140 3140 3141 3141 3142 3142 3143 3142 3143 3143 3142 3142 3142
3133 3135 3137 3139 3141 3142 3144 3146 3147 3149 3150 3151 3152 3152 3153 3152 3152 3151 3151 3150 3148 3147 3145 3144 3143 3144 3142 3140 3139 3138 3138 3138 3138 3138 3139 3139 3139 3139 3140 3140 3142 3141 3141 3141 3141 3140 3139
3127 3129 3132 3134 3136 3139 3140 3142 3144 3146 3148 3148 3149 3150 3150 3150 3150 3149 3149 3148 3149 3147 3144 3142 3141 3139 3139 3138 3137 3135 3135 3135 3136 3136 3136 3137 3138 3138 3137 3137 3138 3138 3139 3139 3138 3137 3135
3121 3124 3126 3129 3132 3134 3136 3138 3140 3142 3144 3146 3147 3147 3148 3148 3148 3148 3147 3146 3145 3145 3141 3139 3138 3137 3137 3136 3135 3134 3134 3135 3135 3135 3135 3136 3135 3135 3135 3135 3135 3135 3136 3136 3135 3134 3134
3114 3118 3120 3123 3126 3129 3131 3134 3136 3138 3140 3142 3143 3144 3145 3145 3145 3146 3145 3144 3143 3141 3140 3138 3137 3137 3136 3137 3134 3134 3134 3134 3134 3134 3133 3134 3135 3134 3134 3134 3134 3134 3134 3133 3133 3131 3130
3105 3110 3114 3117 3120 3123 3126 3129 3131 3133 3136 3138 3140 3140 3141 3142 3144 3143 3142 3142 3141 3139 3138 3138 3136 3137 3136 3136 3136 3135 3134 3136 3134 3133 3133 3133 3133 3132 3132 3133 3133 3132 3131 3130 3129 3129 3130
3097 3101 3106 3111 3114 3117 3120 3123 3126 3128 3130 3133 3135 3137 3138 3139 3139 3140 3141 3139 3139 3139 3138 3137 3135 3135 3135 3136 3136 3135 3134 3134 3133 3133 3135 3133 3132 3131 3131 3131 3131 3131 3129 3128 3126 3125 3124
3089 3092 3096 3102 3107 3111 3113 3116 3120 3123 3125 3127 3130 3132 3134 3135 3136 3137 3137 3137 3138 3140 3133 3132 3132 3132 3134 3133 3133 3132 3133 3133 3132 3132 3132 3131 3130 3131 3130 3130 3129 3128 3126 3124 3121 3121 3122
3080 3085 3088 3093 3099 3103 3107 3110 3113 3117 3119 3122 3124 3127 3129 3131 3133 3134 3134 3135 3137 3133 3132 3131 3130 3131 3132 3131 3130 3129 3130 3130 3131 3131 3131 3130 3129 3129 3129 3128 3128 3127 3126 3124 3121 3118 3115
3072 3076 3082 3087 3092 3095 3098 3102 3106 3110 3113 3116 3119 3122 3124 3126 3128 3129 3131 3133 3131 3127 3126 3126 3128 3129 3129 3129 3128 3128 3128 3128 3127 3127 3128 3128 3128 3127 3127 3127 3127 3125 3126 3126 3121 3116 3115
3062 3068 3072 3078 3083 3087 3092 3095 3098 3101 3106 3111 3113 3116 3119 3119 3122 3125 3128 3129 3125 3123 3123 3124 3125 3125 3126 3126 3127 3127 3127 3127 3126 3126 3128 3126 3125 3124 3125 3125 3127 3124 3124 3125 3123 3119 3117
3058 3060 3065 3070 3074 3079 3084 3087 3091 3095 3099 3104 3106 3109 3112 3112 3116 3119 3122 3121 3121 3121 3120 3120 3122 3123 3122 3124 3125 3124 3124 3125 3125 3125 3125 3126 3126 3122 3123 3124 3124 3124 3124 3124 3123 3119 3112
3052 3056 3059 3062 3066 3071 3075 3079 3083 3086 3092 3096 3098 3101 3103 3105 3109 3112 3113 3115 3117 3118 3118 3119 3118 3118 3119 3120 3121 3122 3121 3122 3122 3122 3123 3124 3124 3123 3121 3121 3121 3122 3122 3123 3123 3122 3117
3044 3048 3053 3056 3058 3063 3067 3071 3075 3079 3084 3088 3090 3092 3095 3097 3101 3102 3106 3109 3113 3113 3114 3114 3114 3114 3115 3116 3116 3117 3117 3118 3119 3120 3120 3121 3119 3118 3118 3117 3117 3118 3118 3119 3120 3119 3116
3038 3043 3045 3049 3052 3056 3059 3063 3067 3072 3077 3081 3082 3083 3085 3088 3090 3095 3100 3103 3107 3109 3110 3110 3110 3111 3112 3113 3116 3113 3113 3115 3116 3117 3117 3118 3115 3116 3114 3115 3113 3114 3114 3114 3114 3114 3107
3029 3034 3037 3041 3045 3049 3051 3053 3059 3065 3069 3073 3075 3076 3077 3080 3084 3089 3094 3099 3101 3103 3105 3105 3106 3107 3108 3110 3113 3113 3111 3112 3112 3112 3114 3113 3111 3110 3109 3109 3109 3110 3110 3110 3108 3105 3095
3020 3024 3030 3033 3036 3038 3043 3044 3049 3057 3062 3065 3065 3066 3069 3070 3077 3083 3089 3092 3094 3097 3100 3100 3100 3102 3104 3105 3107 3107 3109 3110 3109 3109 3109 3111 3106 3105 3104 3103 3100 3098 3100 3101 3095 3088 3089
3011 3016 3021 3025 3027 3026 3030 3034 3040 3049 3053 3055 3057 3060 3065 3068 3072 3077 3082 3085 3088 3090 3093 3094 3095 3097 3099 3099 3102 3103 3104 3103 3105 3104 3103 3104 3101 3098 3095 3095 3091 3085 3087 3086 3082 3079 3075
3002 3008 3013 3017 3020 3020 3022 3027 3033 3039 3043 3044 3048 3054 3059 3062 3067 3072 3077 3081 3083 3085 3087 3088 3090 3091 3093 3095 3095 3097 3097 3097 3096 3096 3097 3098 3097 3095 3090 3089 3085 3078 3071 3072 3072 3069 3069
2994 3001 3006 3011 3013 3015 3017 3020 3025 3031 3034 3039 3045 3049 3053 3059 3064 3069 3071 3076 3078 3080 3084 3083 3084 3086 3088 3089 3090 3090 3091 3091 3088 3088 3090 3089 3091 3094 3087 3085 3079 3067 3066 3065 3062 3060 3061
2988 2994 3000 3005 3006 3008 3011 3015 3018 3022 3029 3034 3041 3045 3050 3055 3060 3064 3065 3069 3071 3074 3078 3078 3079 3082 3081 3084 3085 3085 3083 3084 3080 3079 3080 3082 3085 3088 3086 3080 3068 3061 3060 3059 3055 3050 3051
2980 2987 2995 2999 3001 3004 3006 3012 3017 3020 3025 3031 3036 3042 3046 3049 3053 3056 3059 3062 3065 3068 3072 3072 3073 3075 3077 3077 3078 3079 3079 3077 3076 3074 3074 3074 3077 3082 3078 3079 3067 3053 3053 3052 3049 3041 3040
2973 2981 2988 2994 2998 3003 3005 3009 3015 3019 3021 3028 3033 3037 3042 3044 3047 3052 3054 3058 3061 3063 3064 3068 3068 3070 3071 3070 3072 3074 3072 3074 3073 3069 3068 3069 3070 3072 3074 3070 3054 3049 3047 3046 3045 3040 3033
2966 2973 2981 2987 2994 2999 3004 3007 3011 3015 3017 3022 3028 3031 3038 3041 3044 3047 3050 3054 3055 3057 3059 3062 3065 3063 3066 3066 3067 3066 3064 3065 3066 3064 3063 3064 3065 3063 3063 3061 3050 3043 3040 3041 3035 3029 3026
2960 2967 2973 2980 2987 2993 2997 3001 3004 3010 3013 3016 3022 3028 3032 3038 3041 3042 3045 3048 3051 3052 3056 3055 3057 3058 3059 3058 3059 3059 3060 3060 3059 3057 3056 3056 3054 3054 3052 3043 3039 3037 3034 3028 3024 3020 3015
Wind_Speed
12 11 11 10 9 8 7 6 6 4 2 2 2 2 3 5 6 7 8 8 8 7 7 6 5 6 6 6 6 6 7 7 7 6 7 8 9 9 10 10 12 13 14 15 15 14 15
13 13 12 12 11 10 8 8 7 6 4 4 3 3 3 4 5 6 7 8 8 8 7 7 7 6 7 9 9 9 8 8 8 8 7 8 9 10 11 11 12 10 10 13 15 16 17
17 15 14 13 12 11 10 10 8 8 6 6 5 4 4 5 6 7 8 8 8 9 9 9 9 9 9 10 7 7 6 6 5 6 7 8 9 9 9 10 12 12 12 13 14 15 17
20 18 16 15 14 13 12 11 10 9 8 8 7 5 5 6 8 10 10 10 9 10 11 11 10 10 9 6 5 5 5 5 4 4 6 7 8 9 10 10 9 8 10 10 11 12 14
23 21 19 18 16 15 14 13 12 11 10 10 8 6 6 7 9 11 12 12 12 12 12 11 10 8 7 5 4 4 4 5 6 6 6 6 6 6 7 7 8 7 5 7 9 9 11
26 24 23 21 19 17 16 15 14 13 12 11 9 8 8 9 10 11 12 14 14 14 11 12 7 7 7 9 11 12 11 11 9 8 7 6 6 6 6 6 3 4 5 8 8 10 14
29 28 26 24 22 20 18 17 16 14 13 12 11 10 11 11 11 12 13 13 13 12 12 11 11 10 9 8 8 8 9 8 8 7 7 6 6 6 7 6 8 9 9 10 12 15 18
33 32 30 27 25 23 21 20 18 16 15 13 13 13 13 12 13 13 13 13 13 13 13 12 9 4 3 3 2 1 2 3 4 5 5 5 6 6 7 7 7 8 9 10 11 10 17
36 34 33 30 28 26 24 22 20 18 17 16 15 15 14 14 14 14 14 13 13 14 14 9 4 1 2 3 5 5 3 1 1 3 4 4 4 4 4 5 6 8 9 11 11 14 18
37 36 35 33 31 28 26 24 22 20 19 18 17 17 16 15 15 14 13 12 13 13 8 5 4 2 2 3 3 4 4 3 1 0 1 1 2 3 3 4 5 9 9 11 14 13 5
31 40 34 35 33 31 28 26 25 22 21 21 20 19 18 17 16 15 14 13 12 9 3 3 5 4 3 2 1 3 3 2 1 1 2 3 4 4 6 7 7 9 11 14 15 15 12
30 34 43 42 33 32 30 28 26 24 23 23 22 21 20 19 17 15 14 13 11 3 5 5 5 6 3 2 3 3 3 2 2 3 4 5 6 6 6 7 9 9 9 16 10 6 2
32 32 26 37 38 32 31 29 27 25 25 25 22 23 21 21 18 16 14 12 5 6 6 6 7 6 4 4 3 3 3 4 4 2 3 5 6 7 6 3 4 3 10 4 2 2 2
34 26 35 28 25 29 31 29 29 27 26 26 23 21 24 25 20 17 14 11 8 8 10 7 7 6 7 6 6 6 5 4 5 4 3 3 3 4 4 3 6 9 2 2 4 3 5
33 32 34 35 28 25 31 33 30 31 28 26 27 26 28 29 26 18 15 13 7 11 11 9 8 8 8 9 5 5 5 5 5 5 2 3 4 6 8 9 6 3 3 3 5 7 3
9 24 31 36 36 30 27 29 32 33 30 29 27 30 32 29 26 20 18 20 13 13 11 10 7 6 7 8 5 4 5 6 6 5 5 4 4 10 10 8 8 7 5 2 2 4 5
34 29 20 29 32 33 31 29 33 36 31 30 31 34 33 32 27 22 23 20 18 16 14 12 12 11 10 8 8 7 5 6 8 5 4 5 6 5 7 7 9 9 8 6 4 4 3
43 36 34 22 24 25 24 33 32 30 30 29 34 35 35 33 29 29 25 23 20 14 15 14 13 14 12 10 9 8 9 9 8 7 7 9 7 7 11 14 14 13 13 11 6 4 8
43 41 38 36 33 31 30 34 37 32 32 31 33 36 36 37 33 29 24 23 20 18 16 15 12 13 13 13 8 9 10 10 11 10 5 10 6 3 5 7 11 11 9 12 17 20 20
39 37 38 35 37 37 36 35 42 35 30 29 30 32 37 35 34 28 24 23 21 19 19 18 16 16 14 13 13 8 9 10 13 12 16 17 15 17 13 12 16 13 16 19 22 18 26
38 35 36 36 37 42 43 45 44 41 35 35 33 36 39 27 35 27 23 18 22 22 20 18 19 20 18 15 14 18 17 19 18 19 19 17 21 22 21 23 27 31 32 33 38 43 30
36 36 38 30 30 31 38 42 34 39 36 37 41 38 32 34 28 26 22 24 22 19 20 18 16 13 14 17 20 16 15 16 18 22 20 22 19 21 26 26 30 33 31 31 36 40 45
37 38 39 38 23 23 26 34 38 36 41 40 42 36 34 28 21 20 23 19 19 19 19 18 16 16 17 17 19 21 22 23 25 23 20 19 19 17 13 18 24 29 13 9 18 26 26
39 38 40 36 27 32 33 31 31 32 28 37 37 28 18 16 16 18 16 15 18 18 17 16 16 16 16 18 20 23 24 26 26 26 24 25 23 19 19 22 6 15 11 26 29 27 25
36 35 36 30 28 33 34 28 26 34 28 27 25 19 23 27 24 23 21 19 21 19 20 19 16 15 17 17 18 14 15 17 20 23 26 27 25 14 8 8 29 28 17 17 21 35 33
39 37 38 23 24 26 29 18 23 20 22 23 24 24 23 34 28 19 25 21 18 20 20 20 17 18 18 17 14 8 7 9 7 6 10 17 21 23 12 6 7 25 30 35 34 36 27
38 43 39 29 24 18 21 18 21 24 26 33 33 28 31 28 21 22 22 20 19 21 21 20 19 20 20 19 15 13 12 12 8 8 7 12 17 27 24 15 23 23 21 28 15 26 30
32 36 38 36 37 36 30 31 33 29 28 28 26 33 31 31 27 23 20 18 20 19 18 16 17 20 20 17 12 13 12 12 13 15 10 12 10 15 15 12 17 25 28 27 33 39 43
28 30 31 32 40 45 33 28 30 27 29 30 31 33 32 27 17 22 22 20 22 21 19 20 21 15 13 11 13 9 12 14 16 14 19 20 24 21 19 24 35 40 43 46 47 47 48
Wind_Direction
208 202 200 200 200 204 201 203 209 216 233 272 321 354 19 17 16 17 16 15 16 14 9 356 334 316 313 307 299 295 288 275 267 264 261 247 239 237 236 244 244 243 248 255 260 259 260
217 212 210 208 207 209 212 220 226 232 240 267 287 312 342 358 0 359 359 351 355 358 352 344 338 333 315 294 286 289 288 279 269 261 251 249 242 240 246 246 245 255 257 258 261 263 265
218 217 214 214 213 215 217 224 231 242 247 257 274 293 318 334 341 342 342 340 336 337 336 332 322 316 311 307 283 280 284 288 281 272 256 245 243 242 246 249 252 252 256 261 263 266 270
221 218 217 216 217 218 221 225 232 240 247 255 260 274 300 320 328 328 328 328 325 323 322 319 313 313 304 300 292 282 283 282 285 285 275 262 252 243 246 249 255 260 267 266 267 270 273
223 222 218 217 217 219 221 224 228 235 242 250 255 265 287 306 316 320 325 327 325 325 322 317 312 305 290 277 279 286 281 278 286 287 281 272 259 251 251 254 270 261 248 267 284 281 283
224 223 222 219 219 220 223 225 230 236 240 246 252 264 280 294 307 315 321 323 324 323 320 316 307 305 288 281 280 278 273 272 272 269 261 255 253 256 255 249 248 249 283 288 292 291 290
226 224 223 222 221 222 223 227 230 234 241 242 250 259 272 288 302 311 316 319 322 321 321 316 308 300 295 289 282 275 266 263 259 256 254 253 248 246 259 261 264 273 281 289 295 300 302
230 226 224 223 223 223 225 227 230 233 237 243 249 257 268 281 295 304 308 314 320 318 319 314 312 316 321 326 333 304 275 249 241 244 246 246 247 259 267 268 274 282 291 297 305 308 310
230 229 225 224 223 224 224 227 228 232 236 239 243 253 264 276 288 296 303 307 314 319 316 302 281 341 7 96 76 63 64 66 217 227 231 235 247 263 277 284 292 296 299 303 298 308 306
228 228 228 224 223 223 225 227 228 231 236 240 244 249 259 269 279 288 293 301 312 318 305 284 232 243 45 165 63 55 40 32 82 160 209 235 245 265 272 269 279 288 289 297 303 314 299
234 234 226 228 224 222 223 226 230 231 235 239 243 249 257 267 274 279 286 294 306 315 284 240 208 182 143 94 302 336 338 331 302 279 255 253 255 268 272 282 292 293 305 308 305 298 296
231 230 228 221 228 225 224 225 230 231 236 239 242 247 254 262 267 271 277 288 300 289 250 208 198 178 204 276 302 297 277 260 274 249 245 252 261 273 275 288 295 298 312 312 305 299 213
229 232 225 223 222 225 229 227 228 233 236 238 240 249 255 258 259 264 272 279 276 222 222 217 203 207 243 276 258 223 208 264 254 239 237 273 281 279 278 284 308 321 330 292 258 227 354
217 231 223 222 225 218 222 226 231 236 233 239 236 246 254 246 248 255 259 255 228 229 219 205 199 229 260 248 232 229 253 244 239 210 214 219 266 242 251 279 296 306 297 287 284 284 311
215 213 226 222 224 227 233 234 233 231 229 236 242 247 254 238 243 241 244 235 239 226 225 223 227 253 237 219 234 241 238 228 196 193 220 243 251 238 267 288 285 272 250 241 272 277 277
238 225 229 226 225 225 230 233 233 242 231 233 250 250 247 219 234 227 236 235 235 229 230 225 231 230 209 206 242 223 239 216 220 228 259 226 282 265 270 268 268 251 250 307 281 301 285
237 235 242 227 229 232 228 235 243 230 229 236 245 242 234 215 218 217 226 233 238 239 239 243 246 235 222 222 235 233 233 232 241 230 234 284 260 266 258 252 262 263 261 252 250 254 286
231 232 238 235 233 236 237 233 231 228 235 240 245 238 227 215 204 215 228 234 235 241 237 234 247 240 222 225 228 229 234 232 215 238 270 283 272 257 260 266 262 260 260 251 226 242 232
237 236 238 238 236 245 243 236 230 231 249 242 232 231 222 216 207 214 225 230 237 243 232 231 232 227 229 236 231 239 239 236 234 251 270 293 256 286 278 265 256 245 243 245 256 260 247
234 235 234 233 238 240 243 242 239 232 236 217 229 220 223 214 213 216 221 227 229 236 229 229 234 235 236 239 242 254 246 250 245 260 285 292 263 245 248 268 274 258 258 261 249 247 259
228 227 233 233 250 250 243 247 233 235 223 219 224 223 226 224 219 211 211 226 230 228 229 230 239 240 247 242 247 246 257 262 261 275 280 277 269 268 273 277 275 274 274 270 260 266 250
226 228 227 238 266 237 228 232 233 224 225 226 225 225 223 218 210 208 207 228 232 224 236 244 238 241 246 249 248 255 258 255 261 273 275 267 268 278 283 288 285 281 278 272 267 265 263
221 225 227 235 257 224 228 228 233 233 223 224 225 220 224 218 197 207 221 236 242 237 237 234 239 250 259 247 250 256 254 258 264 269 268 255 261 289 285 288 293 293 295 245 281 278 279
219 223 227 238 243 209 206 219 212 201 213 221 219 219 197 198 218 226 226 240 238 234 238 241 250 256 241 246 259 264 268 267 266 266 262 261 269 276 278 294 260 290 259 292 293 284 279
216 222 225 232 239 219 211 219 214 196 212 212 196 205 231 214 241 240 235 259 239 239 239 242 250 243 248 266 272 269 266 269 266 262 257 257 253 250 252 248 282 294 292 292 295 296 297
214 220 221 220 236 210 178 183 207 200 189 218 221 235 221 234 223 230 258 245 228 227 235 246 238 237 252 270 269 245 236 255 255 239 240 241 235 228 236 245 262 294 300 297 296 294 300
215 214 215 220 216 208 193 192 204 211 201 218 218 229 218 234 247 255 244 238 235 226 241 237 228 241 258 260 251 251 253 244 250 241 235 226 232 228 238 247 272 282 289 291 276 296 300
216 217 220 223 224 223 219 207 207 219 226 220 213 219 229 234 249 243 224 229 233 241 232 225 230 243 244 244 244 251 248 251 251 246 256 251 248 239 230 231 270 295 287 283 290 291 293
205 210 212 222 225 234 223 213 213 219 219 216 213 223 230 227 223 229 232 234 235 237 238 241 242 245 221 226 233 243 253 262 265 265 260 255 252 261 254 270 281 284 284 285 290 292 293